owner,sensor,date,latitude,longitude,air_temperature,qcFlag 
ADCP,ioos:station:wmo:42887:1,2010-10-04T17:40:00Z,28.1910,-88.4960,23.2,11111222 
ADCP,ioos:station:wmo:42887:1,2010-10-04T18:00:00Z,28.1910,-88.4960,22.3,11111222 
ADCP,ioos:station:wmo:42887:1,2010-10-04T18:20:00Z,28.1910,-88.4960,22.5,11111222 
ADCP,ioos:station:wmo:42887:1,2010-10-04T18:40:00Z,28.1910,-88.4960,22.7,11111222 
ADCP,ioos:station:wmo:42887:1,2010-10-04T19:00:00Z,28.1910,-88.4960,22.6,11111222 
ADCP,ioos:station:wmo:42887:1,2010-10-04T19:20:00Z,28.1910,-88.4960,22.6,11111222 
ADCP,ioos:station:wmo:42887:1,2010-10-04T19:40:00Z,28.1910,-88.4960,21.9,11111222 
ADCP,ioos:station:wmo:42887:1,2010-10-04T20:20:00Z,28.1910,-88.4960,22.4,11111222 
ADCP,ioos:station:wmo:42887:1,2010-10-04T20:40:00Z,28.1910,-88.4960,22.0,11111222 
ADCP,ioos:station:wmo:42887:1,2010-10-04T21:00:00Z,28.1910,-88.4960,22.3,11111222 
ADCP,ioos:station:wmo:42887:1,2010-10-04T21:20:00Z,28.1910,-88.4960,22.4,11111222 
ADCP,ioos:station:wmo:42887:1,2010-10-04T21:40:00Z,28.1910,-88.4960,22.3,11111222 
ADCP,ioos:station:wmo:42887:1,2010-10-04T22:00:00Z,28.1910,-88.4960,22.2,11111222 
ADCP,ioos:station:wmo:42887:1,2010-10-04T22:20:00Z,28.1910,-88.4960,21.8,11111222 
ADCP,ioos:station:wmo:42887:1,2010-10-04T23:00:00Z,28.1910,-88.4960,21.5,11111222 
ADCP,ioos:station:wmo:42887:1,2010-10-04T23:20:00Z,28.1910,-88.4960,21.5,11111222 
ADCP,ioos:station:wmo:42887:1,2010-10-05T00:00:00Z,28.1910,-88.4960,21.6,11111222 
ADCP,ioos:station:wmo:42887:1,2010-10-05T00:20:00Z,28.1910,-88.4960,21.8,11111222 
ADCP,ioos:station:wmo:42887:1,2010-10-05T00:40:00Z,28.1910,-88.4960,22.0,11111222 
ADCP,ioos:station:wmo:42887:1,2010-10-05T01:00:00Z,28.1910,-88.4960,21.8,11111222 
ADCP,ioos:station:wmo:42887:1,2010-10-05T01:20:00Z,28.1910,-88.4960,22.0,11111222 
ADCP,ioos:station:wmo:42887:1,2010-10-05T01:40:00Z,28.1910,-88.4960,22.1,11111222 
ADCP,ioos:station:wmo:42887:1,2010-10-05T02:00:00Z,28.1910,-88.4960,22.2,11111222 
ADCP,ioos:station:wmo:42887:1,2010-10-05T02:20:00Z,28.1910,-88.4960,22.1,11111222 
ADCP,ioos:station:wmo:42887:1,2010-10-05T03:00:00Z,28.1910,-88.4960,22.3,11111222 
ADCP,ioos:station:wmo:42887:1,2010-10-05T03:20:00Z,28.1910,-88.4960,22.4,11111222 
ADCP,ioos:station:wmo:42887:1,2010-10-05T03:40:00Z,28.1910,-88.4960,22.5,11111222 
ADCP,ioos:station:wmo:42887:1,2010-10-05T04:00:00Z,28.1910,-88.4960,22.5,11111222 
ADCP,ioos:station:wmo:42887:1,2010-10-05T04:20:00Z,28.1910,-88.4960,22.7,11111222 
ADCP,ioos:station:wmo:42887:1,2010-10-05T04:40:00Z,28.1910,-88.4960,22.9,11111222 
ADCP,ioos:station:wmo:42887:1,2010-10-05T05:00:00Z,28.1910,-88.4960,23.0,11111222 
ADCP,ioos:station:wmo:42887:1,2010-10-05T05:20:00Z,28.1910,-88.4960,23.1,11111222 
ADCP,ioos:station:wmo:42887:1,2010-10-05T05:40:00Z,28.1910,-88.4960,23.2,11111222 
ADCP,ioos:station:wmo:42887:1,2010-10-05T06:00:00Z,28.1910,-88.4960,23.2,11111222 
ADCP,ioos:station:wmo:42887:1,2010-10-05T06:20:00Z,28.1910,-88.4960,23.2,11111222 
ADCP,ioos:station:wmo:42887:1,2010-10-05T06:40:00Z,28.1910,-88.4960,23.1,11111222 
ADCP,ioos:station:wmo:42887:1,2010-10-05T07:00:00Z,28.1910,-88.4960,23.1,11111222 
ADCP,ioos:station:wmo:42887:1,2010-10-05T07:20:00Z,28.1910,-88.4960,23.1,11111222 
ADCP,ioos:station:wmo:42887:1,2010-10-05T07:40:00Z,28.1910,-88.4960,23.1,11111222 
ADCP,ioos:station:wmo:42887:1,2010-10-05T08:20:00Z,28.1910,-88.4960,23.1,11111222 
ADCP,ioos:station:wmo:42887:1,2010-10-05T09:00:00Z,28.1910,-88.4960,22.9,11111222 
ADCP,ioos:station:wmo:42887:1,2010-10-05T09:20:00Z,28.1910,-88.4960,22.8,11111222 
ADCP,ioos:station:wmo:42887:1,2010-10-05T09:40:00Z,28.1910,-88.4960,22.9,11111222 
ADCP,ioos:station:wmo:42887:1,2010-10-05T10:00:00Z,28.1910,-88.4960,22.6,11111222 
ADCP,ioos:station:wmo:42887:1,2010-10-05T10:20:00Z,28.1910,-88.4960,22.6,11111222 
ADCP,ioos:station:wmo:42887:1,2010-10-05T10:40:00Z,28.1910,-88.4960,22.4,11111222 
ADCP,ioos:station:wmo:42887:1,2010-10-05T11:00:00Z,28.1910,-88.4960,22.6,11111222 
ADCP,ioos:station:wmo:42887:1,2010-10-05T11:20:00Z,28.1910,-88.4960,22.4,11111222 
ADCP,ioos:station:wmo:42887:1,2010-10-05T11:40:00Z,28.1910,-88.4960,22.4,11111222 
ADCP,ioos:station:wmo:42887:1,2010-10-05T12:00:00Z,28.1910,-88.4960,22.5,11111222 
ADCP,ioos:station:wmo:42887:1,2010-10-05T12:20:00Z,28.1910,-88.4960,22.8,11111222 
ADCP,ioos:station:wmo:42887:1,2010-10-05T13:00:00Z,28.1910,-88.4960,23.4,11111222 
ADCP,ioos:station:wmo:42887:1,2010-10-05T13:20:00Z,28.1910,-88.4960,23.6,11111222 
ADCP,ioos:station:wmo:42887:1,2010-10-05T13:40:00Z,28.1910,-88.4960,22.9,11111222 
ADCP,ioos:station:wmo:42887:1,2010-10-05T14:00:00Z,28.1910,-88.4960,22.9,11111222 
ADCP,ioos:station:wmo:42887:1,2010-10-05T14:20:00Z,28.1910,-88.4960,22.6,11111222 
ADCP,ioos:station:wmo:42887:1,2010-10-05T14:40:00Z,28.1910,-88.4960,22.7,11111222 
ADCP,ioos:station:wmo:42887:1,2010-10-05T15:00:00Z,28.1910,-88.4960,22.7,11111222 
ADCP,ioos:station:wmo:42887:1,2010-10-05T15:20:00Z,28.1910,-88.4960,22.9,11111222 
ADCP,ioos:station:wmo:42887:1,2010-10-05T15:40:00Z,28.1910,-88.4960,22.8,11111222 
ADCP,ioos:station:wmo:42887:1,2010-10-05T16:00:00Z,28.1910,-88.4960,22.8,11111222 
ADCP,ioos:station:wmo:42887:1,2010-10-05T16:20:00Z,28.1910,-88.4960,22.8,11111222 
ADCP,ioos:station:wmo:42887:1,2010-10-05T16:40:00Z,28.1910,-88.4960,22.6,11111222 
ADCP,ioos:station:wmo:42887:1,2010-10-05T17:00:00Z,28.1910,-88.4960,22.6,11111222 
ADCP,ioos:station:wmo:42887:1,2010-10-05T17:20:00Z,28.1910,-88.4960,22.5,11111222 
ADCP,ioos:station:wmo:42887:1,2010-10-05T18:00:00Z,28.1910,-88.4960,22.5,11111222 
ADCP,ioos:station:wmo:42887:1,2010-10-05T18:20:00Z,28.1910,-88.4960,22.4,11111222 
ADCP,ioos:station:wmo:42887:1,2010-10-05T18:40:00Z,28.1910,-88.4960,22.7,11111222 
ADCP,ioos:station:wmo:42887:1,2010-10-05T19:00:00Z,28.1910,-88.4960,22.2,11111222 
ADCP,ioos:station:wmo:42887:1,2010-10-05T19:20:00Z,28.1910,-88.4960,21.9,11111222 
ADCP,ioos:station:wmo:42887:1,2010-10-05T19:40:00Z,28.1910,-88.4960,22.2,11111222 
ADCP,ioos:station:wmo:42887:1,2010-10-05T20:00:00Z,28.1910,-88.4960,22.2,11111222 
ADCP,ioos:station:wmo:42887:1,2010-10-05T20:20:00Z,28.1910,-88.4960,22.3,11111222 
ADCP,ioos:station:wmo:42887:1,2010-10-05T20:40:00Z,28.1910,-88.4960,22.1,11111222 
ADCP,ioos:station:wmo:42887:1,2010-10-05T21:00:00Z,28.1910,-88.4960,22.7,11111222 
ADCP,ioos:station:wmo:42887:1,2010-10-05T21:20:00Z,28.1910,-88.4960,22.5,11111222 
ADCP,ioos:station:wmo:42887:1,2010-10-05T22:00:00Z,28.1910,-88.4960,21.9,11111222 
ADCP,ioos:station:wmo:42887:1,2010-10-05T22:20:00Z,28.1910,-88.4960,21.6,11111222 
ADCP,ioos:station:wmo:42887:1,2010-10-05T23:00:00Z,28.1910,-88.4960,21.5,11111222 
ADCP,ioos:station:wmo:42887:1,2010-10-05T23:20:00Z,28.1910,-88.4960,21.3,11111222 
ADCP,ioos:station:wmo:42887:1,2010-10-05T23:40:00Z,28.1910,-88.4960,21.2,11111222 
ADCP,ioos:station:wmo:42887:1,2010-10-06T00:00:00Z,28.1910,-88.4960,21.1,11111222 
ADCP,ioos:station:wmo:42887:1,2010-10-06T00:20:00Z,28.1910,-88.4960,21.4,11111222 
ADCP,ioos:station:wmo:42887:1,2010-10-06T01:00:00Z,28.1910,-88.4960,22.0,11111222 
ADCP,ioos:station:wmo:42887:1,2010-10-06T01:20:00Z,28.1910,-88.4960,22.0,11111222 
ADCP,ioos:station:wmo:42887:1,2010-10-06T02:00:00Z,28.1910,-88.4960,22.4,11111222 
ADCP,ioos:station:wmo:42887:1,2010-10-06T02:20:00Z,28.1910,-88.4960,22.5,11111222 
ADCP,ioos:station:wmo:42887:1,2010-10-06T02:40:00Z,28.1910,-88.4960,22.8,11111222 
ADCP,ioos:station:wmo:42887:1,2010-10-06T03:00:00Z,28.1910,-88.4960,23.0,11111222 
ADCP,ioos:station:wmo:42887:1,2010-10-06T03:20:00Z,28.1910,-88.4960,23.2,11111222 
ADCP,ioos:station:wmo:42887:1,2010-10-06T03:40:00Z,28.1910,-88.4960,23.6,11111222 
ADCP,ioos:station:wmo:42887:1,2010-10-06T04:00:00Z,28.1910,-88.4960,23.7,11111222 
ADCP,ioos:station:wmo:42887:1,2010-10-06T04:40:00Z,28.1910,-88.4960,23.7,11111222 
ADCP,ioos:station:wmo:42887:1,2010-10-06T05:00:00Z,28.1910,-88.4960,23.6,11111222 
ADCP,ioos:station:wmo:42887:1,2010-10-06T05:20:00Z,28.1910,-88.4960,23.6,11111222 
ADCP,ioos:station:wmo:42887:1,2010-10-06T06:00:00Z,28.1910,-88.4960,23.5,11111222 
ADCP,ioos:station:wmo:42887:1,2010-10-06T06:20:00Z,28.1910,-88.4960,23.5,11111222 
ADCP,ioos:station:wmo:42887:1,2010-10-06T06:40:00Z,28.1910,-88.4960,23.4,11111222 
ADCP,ioos:station:wmo:42887:1,2010-10-06T07:00:00Z,28.1910,-88.4960,23.3,11111222 
ADCP,ioos:station:wmo:42887:1,2010-10-06T07:20:00Z,28.1910,-88.4960,23.3,11111222 
ADCP,ioos:station:wmo:42887:1,2010-10-06T07:40:00Z,28.1910,-88.4960,23.3,11111222 
ADCP,ioos:station:wmo:42887:1,2010-10-06T08:00:00Z,28.1910,-88.4960,23.3,11111222 
ADCP,ioos:station:wmo:42887:1,2010-10-06T08:20:00Z,28.1910,-88.4960,23.1,11111222 
ADCP,ioos:station:wmo:42887:1,2010-10-06T08:40:00Z,28.1910,-88.4960,23.1,11111222 
ADCP,ioos:station:wmo:42887:1,2010-10-06T09:00:00Z,28.1910,-88.4960,23.1,11111222 
ADCP,ioos:station:wmo:42887:1,2010-10-06T09:20:00Z,28.1910,-88.4960,23.0,11111222 
ADCP,ioos:station:wmo:42887:1,2010-10-06T09:40:00Z,28.1910,-88.4960,23.1,11111222 
ADCP,ioos:station:wmo:42887:1,2010-10-06T10:00:00Z,28.1910,-88.4960,23.0,11111222 
ADCP,ioos:station:wmo:42887:1,2010-10-06T10:20:00Z,28.1910,-88.4960,23.0,11111222 
ADCP,ioos:station:wmo:42887:1,2010-10-06T11:00:00Z,28.1910,-88.4960,23.0,11111222 
ADCP,ioos:station:wmo:42887:1,2010-10-06T11:20:00Z,28.1910,-88.4960,23.1,11111222 
ADCP,ioos:station:wmo:42887:1,2010-10-06T11:40:00Z,28.1910,-88.4960,23.1,11111222 
ADCP,ioos:station:wmo:42887:1,2010-10-06T12:00:00Z,28.1910,-88.4960,23.1,11111222 
ADCP,ioos:station:wmo:42887:1,2010-10-06T12:20:00Z,28.1910,-88.4960,23.5,11111222 
ADCP,ioos:station:wmo:42887:1,2010-10-06T12:40:00Z,28.1910,-88.4960,23.4,11111222 
ADCP,ioos:station:wmo:42887:1,2010-10-06T13:00:00Z,28.1910,-88.4960,24.2,11111222 
ADCP,ioos:station:wmo:42887:1,2010-10-06T13:20:00Z,28.1910,-88.4960,24.1,11111222 
ADCP,ioos:station:wmo:42887:1,2010-10-06T14:00:00Z,28.1910,-88.4960,23.7,11111222 
ADCP,ioos:station:wmo:42887:1,2010-10-06T14:20:00Z,28.1910,-88.4960,23.8,11111222 
ADCP,ioos:station:wmo:42887:1,2010-10-06T14:40:00Z,28.1910,-88.4960,23.6,11111222 
ADCP,ioos:station:wmo:42887:1,2010-10-06T15:00:00Z,28.1910,-88.4960,23.8,11111222 
ADCP,ioos:station:wmo:42887:1,2010-10-06T15:20:00Z,28.1910,-88.4960,23.8,11111222 
ADCP,ioos:station:wmo:42887:1,2010-10-06T15:40:00Z,28.1910,-88.4960,23.8,11111222 
ADCP,ioos:station:wmo:42887:1,2010-10-06T16:00:00Z,28.1910,-88.4960,23.9,11111222 
ADCP,ioos:station:wmo:42887:1,2010-10-06T16:20:00Z,28.1910,-88.4960,23.9,11111222 
ADCP,ioos:station:wmo:42887:1,2010-10-06T17:00:00Z,28.1910,-88.4960,23.7,11111222 
ADCP,ioos:station:wmo:42887:1,2010-10-06T17:20:00Z,28.1910,-88.4960,23.8,11111222 
ADCP,ioos:station:wmo:42887:1,2010-10-06T18:00:00Z,28.1910,-88.4960,23.8,11111222 
ADCP,ioos:station:wmo:42887:1,2010-10-06T18:20:00Z,28.1910,-88.4960,23.8,11111222 
ADCP,ioos:station:wmo:42887:1,2010-10-06T18:40:00Z,28.1910,-88.4960,23.7,11111222 
ADCP,ioos:station:wmo:42887:1,2010-10-06T19:00:00Z,28.1910,-88.4960,23.8,11111222 
ADCP,ioos:station:wmo:42887:1,2010-10-06T19:20:00Z,28.1910,-88.4960,23.5,11111222 
ADCP,ioos:station:wmo:42887:1,2010-10-06T20:00:00Z,28.1910,-88.4960,23.8,11111222 
ADCP,ioos:station:wmo:42887:1,2010-10-06T20:20:00Z,28.1910,-88.4960,23.7,11111222 
ADCP,ioos:station:wmo:42887:1,2010-10-06T21:00:00Z,28.1910,-88.4960,24.1,11111222 
ADCP,ioos:station:wmo:42887:1,2010-10-06T21:20:00Z,28.1910,-88.4960,23.8,11111222 
ADCP,ioos:station:wmo:42887:1,2010-10-06T21:40:00Z,28.1910,-88.4960,24.1,11111222 
ADCP,ioos:station:wmo:42887:1,2010-10-06T22:00:00Z,28.1910,-88.4960,23.9,11111222 
ADCP,ioos:station:wmo:42887:1,2010-10-06T22:20:00Z,28.1910,-88.4960,24.1,11111222 
ADCP,ioos:station:wmo:42887:1,2010-10-06T23:00:00Z,28.1910,-88.4960,24.0,11111222 
ADCP,ioos:station:wmo:42887:1,2010-10-06T23:20:00Z,28.1910,-88.4960,24.0,11111222 
ADCP,ioos:station:wmo:42887:1,2010-10-06T23:40:00Z,28.1910,-88.4960,23.8,11111222 
ADCP,ioos:station:wmo:42887:1,2010-10-07T00:00:00Z,28.1910,-88.4960,23.8,11111222 
ADCP,ioos:station:wmo:42887:1,2010-10-07T00:20:00Z,28.1910,-88.4960,23.6,11111222 
ADCP,ioos:station:wmo:42887:1,2010-10-07T01:00:00Z,28.1910,-88.4960,23.7,11111222 
ADCP,ioos:station:wmo:42887:1,2010-10-07T01:20:00Z,28.1910,-88.4960,23.6,11111222 
ADCP,ioos:station:wmo:42887:1,2010-10-07T01:40:00Z,28.1910,-88.4960,23.7,11111222 
ADCP,ioos:station:wmo:42887:1,2010-10-07T02:00:00Z,28.1910,-88.4960,23.4,11111222 
ADCP,ioos:station:wmo:42887:1,2010-10-07T02:20:00Z,28.1910,-88.4960,23.5,11111222 
ADCP,ioos:station:wmo:42887:1,2010-10-07T03:00:00Z,28.1910,-88.4960,23.7,11111222 
ADCP,ioos:station:wmo:42887:1,2010-10-07T03:20:00Z,28.1910,-88.4960,23.8,11111222 
ADCP,ioos:station:wmo:42887:1,2010-10-07T03:40:00Z,28.1910,-88.4960,23.9,11111222 
ADCP,ioos:station:wmo:42887:1,2010-10-07T04:00:00Z,28.1910,-88.4960,23.9,11111222 
ADCP,ioos:station:wmo:42887:1,2010-10-07T04:20:00Z,28.1910,-88.4960,24.0,11111222 
ADCP,ioos:station:wmo:42887:1,2010-10-07T04:40:00Z,28.1910,-88.4960,24.1,11111222 
ADCP,ioos:station:wmo:42887:1,2010-10-07T05:00:00Z,28.1910,-88.4960,24.2,11111222 
ADCP,ioos:station:wmo:42887:1,2010-10-07T05:20:00Z,28.1910,-88.4960,24.3,11111222 
ADCP,ioos:station:wmo:42887:1,2010-10-07T05:40:00Z,28.1910,-88.4960,24.3,11111222 
ADCP,ioos:station:wmo:42887:1,2010-10-07T06:00:00Z,28.1910,-88.4960,24.4,11111222 
ADCP,ioos:station:wmo:42887:1,2010-10-07T06:20:00Z,28.1910,-88.4960,24.4,11111222 
ADCP,ioos:station:wmo:42887:1,2010-10-07T07:00:00Z,28.1910,-88.4960,24.5,11111222 
ADCP,ioos:station:wmo:42887:1,2010-10-07T07:20:00Z,28.1910,-88.4960,24.5,11111222 
ADCP,ioos:station:wmo:42887:1,2010-10-07T07:40:00Z,28.1910,-88.4960,24.4,11111222 
ADCP,ioos:station:wmo:42887:1,2010-10-07T08:00:00Z,28.1910,-88.4960,24.5,11111222 
ADCP,ioos:station:wmo:42887:1,2010-10-07T08:20:00Z,28.1910,-88.4960,24.5,11111222 
ADCP,ioos:station:wmo:42887:1,2010-10-07T08:40:00Z,28.1910,-88.4960,24.5,11111222 
ADCP,ioos:station:wmo:42887:1,2010-10-07T09:00:00Z,28.1910,-88.4960,24.5,11111222 
ADCP,ioos:station:wmo:42887:1,2010-10-07T09:20:00Z,28.1910,-88.4960,24.4,11111222 
ADCP,ioos:station:wmo:42887:1,2010-10-07T09:40:00Z,28.1910,-88.4960,24.6,11111222 
ADCP,ioos:station:wmo:42887:1,2010-10-07T10:00:00Z,28.1910,-88.4960,24.5,11111222 
ADCP,ioos:station:wmo:42887:1,2010-10-07T10:20:00Z,28.1910,-88.4960,24.5,11111222 
ADCP,ioos:station:wmo:42887:1,2010-10-07T11:00:00Z,28.1910,-88.4960,24.9,11111222 
ADCP,ioos:station:wmo:42887:1,2010-10-07T11:20:00Z,28.1910,-88.4960,24.9,11111222 
ADCP,ioos:station:wmo:42887:1,2010-10-07T12:00:00Z,28.1910,-88.4960,25.2,11111222 
ADCP,ioos:station:wmo:42887:1,2010-10-07T12:20:00Z,28.1910,-88.4960,25.7,11111222 
ADCP,ioos:station:wmo:42887:1,2010-10-07T12:40:00Z,28.1910,-88.4960,26.5,11111222 
ADCP,ioos:station:wmo:42887:1,2010-10-07T13:00:00Z,28.1910,-88.4960,26.4,11111222 
ADCP,ioos:station:wmo:42887:1,2010-10-07T13:20:00Z,28.1910,-88.4960,26.4,11111222 
ADCP,ioos:station:wmo:42887:1,2010-10-07T14:00:00Z,28.1910,-88.4960,26.1,11111222 
ADCP,ioos:station:wmo:42887:1,2010-10-07T14:20:00Z,28.1910,-88.4960,26.0,11111222 
ADCP,ioos:station:wmo:42887:1,2010-10-07T15:20:00Z,28.1910,-88.4960,25.8,11111222 
ADCP,ioos:station:wmo:42887:1,2010-10-07T15:40:00Z,28.1910,-88.4960,25.6,11111222 
ADCP,ioos:station:wmo:42887:1,2010-10-07T16:00:00Z,28.1910,-88.4960,25.9,11111222 
ADCP,ioos:station:wmo:42887:1,2010-10-07T16:20:00Z,28.1910,-88.4960,25.9,11111222 
ADCP,ioos:station:wmo:42887:1,2010-10-07T16:40:00Z,28.1910,-88.4960,26.1,11111222 
ADCP,ioos:station:wmo:42887:1,2010-10-07T17:00:00Z,28.1910,-88.4960,26.1,11111222 
ADCP,ioos:station:wmo:42887:1,2010-10-07T17:20:00Z,28.1910,-88.4960,26.0,11111222 
ADCP,ioos:station:wmo:42887:1,2010-10-07T18:00:00Z,28.1910,-88.4960,26.1,11111222 
ADCP,ioos:station:wmo:42887:1,2010-10-07T18:20:00Z,28.1910,-88.4960,26.0,11111222 
ADCP,ioos:station:wmo:42887:1,2010-10-07T18:40:00Z,28.1910,-88.4960,26.0,11111222 
ADCP,ioos:station:wmo:42887:1,2010-10-07T19:00:00Z,28.1910,-88.4960,26.3,11111222 
ADCP,ioos:station:wmo:42887:1,2010-10-07T19:20:00Z,28.1910,-88.4960,26.4,11111222 
ADCP,ioos:station:wmo:42887:1,2010-10-07T19:40:00Z,28.1910,-88.4960,25.9,11111222 
ADCP,ioos:station:wmo:42887:1,2010-10-07T20:00:00Z,28.1910,-88.4960,26.5,11111222 
ADCP,ioos:station:wmo:42887:1,2010-10-07T20:20:00Z,28.1910,-88.4960,26.6,11111222 
ADCP,ioos:station:wmo:42887:1,2010-10-07T21:00:00Z,28.1910,-88.4960,26.7,11111222 
ADCP,ioos:station:wmo:42887:1,2010-10-07T21:20:00Z,28.1910,-88.4960,26.3,11111222 
ADCP,ioos:station:wmo:42887:1,2010-10-07T21:40:00Z,28.1910,-88.4960,26.3,11111222 
ADCP,ioos:station:wmo:42887:1,2010-10-07T22:00:00Z,28.1910,-88.4960,26.2,11111222 
ADCP,ioos:station:wmo:42887:1,2010-10-07T22:20:00Z,28.1910,-88.4960,25.9,11111222 
ADCP,ioos:station:wmo:42887:1,2010-10-07T23:00:00Z,28.1910,-88.4960,25.6,11111222 
ADCP,ioos:station:wmo:42887:1,2010-10-07T23:20:00Z,28.1910,-88.4960,25.4,11111222 
ADCP,ioos:station:wmo:42887:1,2010-10-07T23:40:00Z,28.1910,-88.4960,25.0,11111222 
ADCP,ioos:station:wmo:42887:1,2010-10-08T00:00:00Z,28.1910,-88.4960,24.9,11111222 
ADCP,ioos:station:wmo:42887:1,2010-10-08T00:20:00Z,28.1910,-88.4960,24.8,11111222 
ADCP,ioos:station:wmo:42887:1,2010-10-08T00:40:00Z,28.1910,-88.4960,24.8,11111222 
ADCP,ioos:station:wmo:42887:1,2010-10-08T01:00:00Z,28.1910,-88.4960,24.7,11111222 
ADCP,ioos:station:wmo:42887:1,2010-10-08T01:20:00Z,28.1910,-88.4960,24.8,11111222 
ADCP,ioos:station:wmo:42887:1,2010-10-08T01:40:00Z,28.1910,-88.4960,24.9,11111222 
ADCP,ioos:station:wmo:42887:1,2010-10-08T02:00:00Z,28.1910,-88.4960,25.0,11111222 
ADCP,ioos:station:wmo:42887:1,2010-10-08T02:20:00Z,28.1910,-88.4960,25.0,11111222 
ADCP,ioos:station:wmo:42887:1,2010-10-08T02:40:00Z,28.1910,-88.4960,24.8,11111222 
ADCP,ioos:station:wmo:42887:1,2010-10-08T03:00:00Z,28.1910,-88.4960,24.5,11111222 
ADCP,ioos:station:wmo:42887:1,2010-10-08T03:20:00Z,28.1910,-88.4960,24.7,11111222 
ADCP,ioos:station:wmo:42887:1,2010-10-08T04:00:00Z,28.1910,-88.4960,24.9,11111222 
ADCP,ioos:station:wmo:42887:1,2010-10-08T04:20:00Z,28.1910,-88.4960,24.9,11111222 
ADCP,ioos:station:wmo:42887:1,2010-10-08T04:40:00Z,28.1910,-88.4960,25.0,11111222 
ADCP,ioos:station:wmo:42887:1,2010-10-08T05:00:00Z,28.1910,-88.4960,25.1,11111222 
ADCP,ioos:station:wmo:42887:1,2010-10-08T05:20:00Z,28.1910,-88.4960,25.2,11111222 
ADCP,ioos:station:wmo:42887:1,2010-10-08T06:00:00Z,28.1910,-88.4960,25.3,11111222 
ADCP,ioos:station:wmo:42887:1,2010-10-08T06:20:00Z,28.1910,-88.4960,25.3,11111222 
ADCP,ioos:station:wmo:42887:1,2010-10-08T06:40:00Z,28.1910,-88.4960,25.3,11111222 
ADCP,ioos:station:wmo:42887:1,2010-10-08T07:00:00Z,28.1910,-88.4960,25.3,11111222 
ADCP,ioos:station:wmo:42887:1,2010-10-08T07:40:00Z,28.1910,-88.4960,25.3,11111222 
ADCP,ioos:station:wmo:42887:1,2010-10-08T08:00:00Z,28.1910,-88.4960,25.4,11111222 
ADCP,ioos:station:wmo:42887:1,2010-10-08T08:20:00Z,28.1910,-88.4960,25.5,11111222 
ADCP,ioos:station:wmo:42887:1,2010-10-08T08:40:00Z,28.1910,-88.4960,25.4,11111222 
ADCP,ioos:station:wmo:42887:1,2010-10-08T09:00:00Z,28.1910,-88.4960,25.4,11111222 
ADCP,ioos:station:wmo:42887:1,2010-10-08T09:20:00Z,28.1910,-88.4960,25.4,11111222 
ADCP,ioos:station:wmo:42887:1,2010-10-08T09:40:00Z,28.1910,-88.4960,25.5,11111222 
ADCP,ioos:station:wmo:42887:1,2010-10-08T10:20:00Z,28.1910,-88.4960,25.3,11111222 
ADCP,ioos:station:wmo:42887:1,2010-10-08T10:40:00Z,28.1910,-88.4960,25.3,11111222 
ADCP,ioos:station:wmo:42887:1,2010-10-08T11:00:00Z,28.1910,-88.4960,25.3,11111222 
ADCP,ioos:station:wmo:42887:1,2010-10-08T11:20:00Z,28.1910,-88.4960,25.2,11111222 
ADCP,ioos:station:wmo:42887:1,2010-10-08T11:40:00Z,28.1910,-88.4960,25.2,11111222 
ADCP,ioos:station:wmo:42887:1,2010-10-08T12:00:00Z,28.1910,-88.4960,25.4,11111222 
ADCP,ioos:station:wmo:42887:1,2010-10-08T12:20:00Z,28.1910,-88.4960,26.4,11111222 
ADCP,ioos:station:wmo:42887:1,2010-10-08T12:40:00Z,28.1910,-88.4960,27.4,11111222 
ADCP,ioos:station:wmo:42887:1,2010-10-08T13:00:00Z,28.1910,-88.4960,27.7,11111222 
ADCP,ioos:station:wmo:42887:1,2010-10-08T13:20:00Z,28.1910,-88.4960,27.8,11111222 
ADCP,ioos:station:wmo:42887:1,2010-10-08T14:00:00Z,28.1910,-88.4960,27.2,11111222 
ADCP,ioos:station:wmo:42887:1,2010-10-08T14:20:00Z,28.1910,-88.4960,27.0,11111222 
ADCP,ioos:station:wmo:42887:1,2010-10-08T14:40:00Z,28.1910,-88.4960,27.0,11111222 
ADCP,ioos:station:wmo:42887:1,2010-10-08T15:00:00Z,28.1910,-88.4960,27.0,11111222 
ADCP,ioos:station:wmo:42887:1,2010-10-08T15:20:00Z,28.1910,-88.4960,27.0,11111222 
ADCP,ioos:station:wmo:42887:1,2010-10-08T15:40:00Z,28.1910,-88.4960,27.0,11111222 
ADCP,ioos:station:wmo:42887:1,2010-10-08T16:00:00Z,28.1910,-88.4960,27.0,11111222 
ADCP,ioos:station:wmo:42887:1,2010-10-08T16:20:00Z,28.1910,-88.4960,27.3,11111222 
ADCP,ioos:station:wmo:42887:1,2010-10-08T16:40:00Z,28.1910,-88.4960,27.2,11111222 
ADCP,ioos:station:wmo:42887:1,2010-10-08T17:00:00Z,28.1910,-88.4960,27.3,11111222 
ADCP,ioos:station:wmo:42887:1,2010-10-08T17:20:00Z,28.1910,-88.4960,27.7,11111222 
ADCP,ioos:station:wmo:42887:1,2010-10-08T17:40:00Z,28.1910,-88.4960,27.7,11111222 
ADCP,ioos:station:wmo:42887:1,2010-10-08T18:00:00Z,28.1910,-88.4960,27.4,11111222 
ADCP,ioos:station:wmo:42887:1,2010-10-08T18:20:00Z,28.1910,-88.4960,27.0,11111222 
ADCP,ioos:station:wmo:42887:1,2010-10-08T18:40:00Z,28.1910,-88.4960,26.8,11111222 
ADCP,ioos:station:wmo:42887:1,2010-10-08T19:00:00Z,28.1910,-88.4960,27.5,11111222 
ADCP,ioos:station:wmo:42887:1,2010-10-08T19:20:00Z,28.1910,-88.4960,27.2,11111222 
ADCP,ioos:station:wmo:42887:1,2010-10-08T19:40:00Z,28.1910,-88.4960,26.4,11111222 
ADCP,ioos:station:wmo:42887:1,2010-10-08T20:00:00Z,28.1910,-88.4960,27.1,11111222 
ADCP,ioos:station:wmo:42887:1,2010-10-08T20:20:00Z,28.1910,-88.4960,27.6,11111222 
ADCP,ioos:station:wmo:42887:1,2010-10-08T21:00:00Z,28.1910,-88.4960,27.4,11111222 
ADCP,ioos:station:wmo:42887:1,2010-10-08T21:20:00Z,28.1910,-88.4960,27.2,11111222 
ADCP,ioos:station:wmo:42887:1,2010-10-08T22:00:00Z,28.1910,-88.4960,26.7,11111222 
ADCP,ioos:station:wmo:42887:1,2010-10-08T22:20:00Z,28.1910,-88.4960,26.4,11111222 
ADCP,ioos:station:wmo:42887:1,2010-10-08T22:40:00Z,28.1910,-88.4960,26.8,11111222 
ADCP,ioos:station:wmo:42887:1,2010-10-08T23:20:00Z,28.1910,-88.4960,26.0,11111222 
ADCP,ioos:station:wmo:42887:1,2010-10-09T00:00:00Z,28.1910,-88.4960,24.9,11111222 
ADCP,ioos:station:wmo:42887:1,2010-10-09T00:20:00Z,28.1910,-88.4960,24.8,11111222 
ADCP,ioos:station:wmo:42887:1,2010-10-09T00:40:00Z,28.1910,-88.4960,25.1,11111222 
ADCP,ioos:station:wmo:42887:1,2010-10-09T01:00:00Z,28.1910,-88.4960,25.8,11111222 
ADCP,ioos:station:wmo:42887:1,2010-10-09T01:20:00Z,28.1910,-88.4960,25.5,11111222 
ADCP,ioos:station:wmo:42887:1,2010-10-09T01:40:00Z,28.1910,-88.4960,25.2,11111222 
ADCP,ioos:station:wmo:42887:1,2010-10-09T02:00:00Z,28.1910,-88.4960,25.5,11111222 
ADCP,ioos:station:wmo:42887:1,2010-10-09T02:20:00Z,28.1910,-88.4960,25.4,11111222 
ADCP,ioos:station:wmo:42887:1,2010-10-09T02:40:00Z,28.1910,-88.4960,25.0,11111222 
ADCP,ioos:station:wmo:42887:1,2010-10-09T03:00:00Z,28.1910,-88.4960,25.2,11111222 
ADCP,ioos:station:wmo:42887:1,2010-10-09T03:20:00Z,28.1910,-88.4960,25.3,11111222 
ADCP,ioos:station:wmo:42887:1,2010-10-09T03:40:00Z,28.1910,-88.4960,25.3,11111222 
ADCP,ioos:station:wmo:42887:1,2010-10-09T04:00:00Z,28.1910,-88.4960,24.5,11111222 
ADCP,ioos:station:wmo:42887:1,2010-10-09T04:20:00Z,28.1910,-88.4960,24.6,11111222 
ADCP,ioos:station:wmo:42887:1,2010-10-09T04:40:00Z,28.1910,-88.4960,25.0,11111222 
ADCP,ioos:station:wmo:42887:1,2010-10-09T05:00:00Z,28.1910,-88.4960,25.1,11111222 
ADCP,ioos:station:wmo:42887:1,2010-10-09T05:20:00Z,28.1910,-88.4960,25.5,11111222 
ADCP,ioos:station:wmo:42887:1,2010-10-09T05:40:00Z,28.1910,-88.4960,25.5,11111222 
ADCP,ioos:station:wmo:42887:1,2010-10-09T06:00:00Z,28.1910,-88.4960,25.5,11111222 
ADCP,ioos:station:wmo:42887:1,2010-10-09T06:20:00Z,28.1910,-88.4960,25.5,11111222 
ADCP,ioos:station:wmo:42887:1,2010-10-09T07:00:00Z,28.1910,-88.4960,25.6,11111222 
ADCP,ioos:station:wmo:42887:1,2010-10-09T07:20:00Z,28.1910,-88.4960,25.5,11111222 